Starlink 32003

operational
NORAD ID: 60097 Int'l Des: 2024-117 Owner: SPXS Country: US Constellation: starlink
LEOCIRCULAR

About Starlink 32003

Description loading...

Live Position

Loading 3D Globe...

Upcoming Passes

Altitude History

Altitude vs Time

uPlot chart will show altitude changes over time

Two-Line Element Set

1 60097U 24117G 26036.13275539 -.00000120 00000-0 80950-5 0 9990
2 60097 53.1589 188.2186 0001343 96.4546 263.6608 15.30192827 91902
Epoch: Feb 5, 2026 • Age: 13 hours

Current Status

Altitude 480.0 km
Velocity 7.63 km/s
Sub-Earth Point 48.99°N, 131.61°W
Launch Date Jun 23, 2024
Age 1.6 years
Type internet

Technical Details

Classification Payload
Mass 730.00 kg
Dry Mass 700.00 kg
Total Mass 730.00 kg
Length 0.30 m
Diameter 4.10 m
Span 29.00 m
Shape Box + pan
Manufacturer SPXS
Bus Type Starlink V2M
Phase Status In Orbit
Owner/State SPXS/US

Large Constellations

Loading constellations...